When you browse on this site, cookies collect data to enhance your experience and personalize the content and advertising you see.
Visit our Privacy Policy to learn more. By continuing to use the site, you agree to this use of cookies and data.
  • In Latvia
  • List of Countries
  • For 7 days
  • Water Temperature
  • Weather Map
  • Weather Widgets
  • user-avatar
    Login

    Hourly Weather Greensboro

    Today, 14 October, Monday

    Time Temperature Precipitation Wind Pressure Humidity
    00:00 +19°C° 0 mm 1 mps 740 mmHg 97%
    01:00 +18°C° 0 mm 1 mps 740 mmHg 98%
    02:00 +18°C° 0 mm 1 mps 740 mmHg 97%
    03:00 +18°C° 0 mm 1 mps 740 mmHg 96%
    04:00 +16°C° 0 mm 1 mps 740 mmHg 95%
    05:00 +15°C° 0 mm 1 mps 740 mmHg 91%
    06:00 +14°C° 0 mm 1 mps 741 mmHg 87%
    07:00 +13°C° 0 mm 2 mps 741 mmHg 83%
    08:00 +15°C° 0 mm 2 mps 741 mmHg 73%
    09:00 +18°C° 0 mm 2 mps 742 mmHg 63%
    10:00 +20°C° 0 mm 2 mps 742 mmHg 53%
    11:00 +21°C° 0 mm 2 mps 742 mmHg 45%
    12:00 +24°C° 0 mm 2 mps 741 mmHg 37%
    13:00 +26°C° 0 mm 2 mps 741 mmHg 29%
    14:00 +26°C° 0 mm 1 mps 741 mmHg 30%
    15:00 +26°C° 0 mm 1 mps 741 mmHg 31%
    16:00 +26°C° 0 mm 1 mps 741 mmHg 32%
    17:00 +23°C° 0 mm 1 mps 741 mmHg 38%
    18:00 +20°C° 0 mm 1 mps 741 mmHg 43%
    19:00 +15°C° 0 mm 0 mps 741 mmHg 48%
    20:00 +16°C° 0 mm 1 mps 742 mmHg 50%
    21:00 +15°C° 0 mm 1 mps 742 mmHg 51%
    22:00 +14°C° 0 mm 1 mps 742 mmHg 52%
    23:00 +14°C° 0 mm 1 mps 742 mmHg 54%

    Tomorrow, 15 October, Tuesday

    Time Temperature Precipitation Wind Pressure Humidity
    00:00 +14°C° 0 mm 1 mps 743 mmHg 55%
    01:00 +13°C° 0 mm 1 mps 743 mmHg 57%
    02:00 +13°C° 0 mm 1 mps 743 mmHg 59%
    03:00 +12°C° 0 mm 1 mps 743 mmHg 61%
    04:00 +12°C° 0 mm 1 mps 743 mmHg 63%
    05:00 +11°C° 0 mm 1 mps 743 mmHg 65%
    06:00 +10°C° 0 mm 2 mps 743 mmHg 66%
    07:00 +10°C° 0 mm 2 mps 743 mmHg 68%
    08:00 +13°C° 0 mm 2 mps 743 mmHg 62%
    09:00 +15°C° 0 mm 2 mps 743 mmHg 56%
    10:00 +18°C° 0 mm 2 mps 743 mmHg 50%
    11:00 +19°C° 0 mm 2 mps 743 mmHg 47%
    12:00 +20°C° 0 mm 2 mps 743 mmHg 45%
    13:00 +23°C° 0 mm 2 mps 742 mmHg 42%
    14:00 +21°C° 0 mm 2 mps 742 mmHg 45%
    15:00 +21°C° 0 mm 2 mps 741 mmHg 49%
    16:00 +21°C° 0 mm 2 mps 740 mmHg 52%
    17:00 +19°C° 0 mm 2 mps 740 mmHg 57%
    18:00 +18°C° 0 mm 2 mps 740 mmHg 61%
    19:00 +17°C° 0 mm 2 mps 740 mmHg 65%
    20:00 +16°C° 0 mm 2 mps 740 mmHg 65%
    21:00 +16°C° 0 mm 2 mps 740 mmHg 66%
    22:00 +16°C° 0 mm 2 mps 740 mmHg 66%
    23:00 +16°C° 0.4 mm 2 mps 739 mmHg 70%

    Day after tomorrow, 16 October, Wednesday

    Time Temperature Precipitation Wind Pressure Humidity
    00:00 +15°C° 0.4 mm 2 mps 738 mmHg 73%
    01:00 +15°C° 0.4 mm 1 mps 738 mmHg 76%
    02:00 +15°C° 1.3 mm 1 mps 737 mmHg 82%
    03:00 +14°C° 1.3 mm 1 mps 737 mmHg 88%
    04:00 +14°C° 1.3 mm 1 mps 736 mmHg 94%
    05:00 +14°C° 0.2 mm 1 mps 735 mmHg 94%
    06:00 +14°C° 0.2 mm 1 mps 735 mmHg 95%
    07:00 +14°C° 0.2 mm 1 mps 734 mmHg 96%
    08:00 +15°C° 0 mm 1 mps 733 mmHg 94%
    09:00 +16°C° 0 mm 1 mps 733 mmHg 93%
    10:00 +18°C° 0 mm 1 mps 733 mmHg 91%
    11:00 +18°C° 0.1 mm 2 mps 732 mmHg 89%
    12:00 +19°C° 0.1 mm 3 mps 732 mmHg 87%
    13:00 +19°C° 0.1 mm 4 mps 732 mmHg 85%
    14:00 +20°C° 0 mm 4 mps 732 mmHg 74%
    15:00 +21°C° 0 mm 5 mps 732 mmHg 62%
    16:00 +23°C° 0 mm 6 mps 732 mmHg 50%
    17:00 +20°C° 0 mm 5 mps 732 mmHg 52%
    18:00 +17°C° 0 mm 5 mps 733 mmHg 53%
    19:00 +14°C° 0 mm 4 mps 734 mmHg 55%
    20:00 +12°C° 0 mm 4 mps 735 mmHg 57%
    21:00 +11°C° 0 mm 4 mps 735 mmHg 59%
    22:00 +8°C° 0 mm 4 mps 736 mmHg 61%
    23:00 +7°C° 0 mm 4 mps 736 mmHg 63%

    17 October, Thursday

    Time Temperature Precipitation Wind Pressure Humidity
    00:00 +8°C° 0 mm 3 mps 736 mmHg 64%
    01:00 +8°C° 0 mm 3 mps 736 mmHg 66%
    02:00 +8°C° 0 mm 3 mps 736 mmHg 66%
    03:00 +7°C° 0 mm 3 mps 736 mmHg 67%
    04:00 +7°C° 0 mm 3 mps 736 mmHg 68%
    05:00 +7°C° 0 mm 3 mps 736 mmHg 68%
    06:00 +7°C° 0 mm 3 mps 737 mmHg 67%
    07:00 +7°C° 0 mm 3 mps 737 mmHg 67%
    08:00 +9°C° 0 mm 3 mps 737 mmHg 61%
    09:00 +11°C° 0 mm 4 mps 738 mmHg 55%
    10:00 +12°C° 0 mm 4 mps 738 mmHg 49%
    11:00 +13°C° 0 mm 4 mps 738 mmHg 47%
    12:00 +14°C° 0 mm 4 mps 738 mmHg 44%
    13:00 +15°C° 0 mm 4 mps 738 mmHg 41%
    14:00 +17°C° 0 mm 4 mps 737 mmHg 41%
    15:00 +17°C° 0 mm 4 mps 737 mmHg 41%
    16:00 +17°C° 0 mm 4 mps 737 mmHg 40%
    17:00 +14°C° 0 mm 3 mps 737 mmHg 46%
    18:00 +12°C° 0 mm 3 mps 738 mmHg 51%
    19:00 +10°C° 0 mm 2 mps 738 mmHg 57%
    20:00 +10°C° 0 mm 2 mps 739 mmHg 59%
    21:00 +9°C° 0 mm 2 mps 739 mmHg 62%
    22:00 +8°C° 0 mm 2 mps 740 mmHg 65%
    23:00 +8°C° 0 mm 2 mps 740 mmHg 67%

    18 October, Friday

    Time Temperature Precipitation Wind Pressure Humidity
    00:00 +7°C° 0 mm 2 mps 740 mmHg 70%
    01:00 +7°C° 0 mm 2 mps 741 mmHg 72%
    02:00 +6°C° 0 mm 2 mps 741 mmHg 74%
    03:00 +7°C° 0 mm 1 mps 741 mmHg 77%
    04:00 +6°C° 0 mm 1 mps 741 mmHg 79%
    05:00 +6°C° 0 mm 1 mps 741 mmHg 79%
    06:00 +6°C° 0 mm 1 mps 742 mmHg 79%
    07:00 +6°C° 0 mm 1 mps 742 mmHg 79%
    08:00 +9°C° 0 mm 1 mps 742 mmHg 68%
    09:00 +12°C° 0 mm 1 mps 742 mmHg 57%
    10:00 +15°C° 0 mm 2 mps 743 mmHg 46%
    11:00 +18°C° 0 mm 1 mps 742 mmHg 42%
    12:00 +19°C° 0 mm 1 mps 742 mmHg 37%
    13:00 +21°C° 0 mm 1 mps 742 mmHg 33%
    14:00 +20°C° 0 mm 1 mps 741 mmHg 35%
    15:00 +20°C° 0 mm 1 mps 741 mmHg 37%
    16:00 +19°C° 0 mm 1 mps 741 mmHg 39%
    17:00 +16°C° 0 mm 1 mps 741 mmHg 46%
    18:00 +14°C° 0 mm 1 mps 741 mmHg 53%
    19:00 +12°C° 0 mm 1 mps 742 mmHg 61%
    20:00 +11°C° 0 mm 1 mps 742 mmHg 64%
    21:00 +11°C° 0 mm 1 mps 742 mmHg 66%
    22:00 +10°C° 0 mm 1 mps 742 mmHg 69%
    23:00 +10°C° 0 mm 1 mps 742 mmHg 71%

    19 October, Saturday

    Time Temperature Precipitation Wind Pressure Humidity
    00:00 +10°C° 0 mm 1 mps 742 mmHg 73%
    01:00 +9°C° 0 mm 1 mps 743 mmHg 75%
    02:00 +9°C° 0 mm 1 mps 742 mmHg 77%
    03:00 +9°C° 0 mm 1 mps 742 mmHg 78%
    04:00 +8°C° 0 mm 1 mps 742 mmHg 80%
    05:00 +8°C° 0 mm 1 mps 743 mmHg 81%
    06:00 +8°C° 0 mm 1 mps 743 mmHg 82%
    07:00 +8°C° 0 mm 1 mps 743 mmHg 83%
    08:00 +10°C° 0 mm 2 mps 743 mmHg 74%
    09:00 +14°C° 0 mm 2 mps 743 mmHg 64%
    10:00 +17°C° 0 mm 2 mps 743 mmHg 54%
    11:00 +19°C° 0 mm 3 mps 743 mmHg 53%
    12:00 +20°C° 0 mm 3 mps 743 mmHg 52%
    13:00 +21°C° 0 mm 3 mps 743 mmHg 51%
    14:00 +21°C° 0 mm 3 mps 742 mmHg 53%
    15:00 +21°C° 0 mm 3 mps 742 mmHg 54%
    16:00 +21°C° 0 mm 3 mps 742 mmHg 56%
    17:00 +19°C° 0 mm 3 mps 742 mmHg 64%
    18:00 +17°C° 0 mm 2 mps 742 mmHg 72%
    19:00 +15°C° 0 mm 2 mps 743 mmHg 80%
    20:00 +15°C° 0 mm 2 mps 743 mmHg 81%
    21:00 +14°C° 0 mm 2 mps 743 mmHg 82%
    22:00 +14°C° 0 mm 2 mps 743 mmHg 84%
    23:00 +13°C° 0 mm 2 mps 743 mmHg 86%
    Show more